User: anonymous
Location: Unspecified
(0.0000°N, 0.0000°E)
Time: 20:34:34
(UTC+02:00)
Language:

Iridium 75 - Orbit

View from above orbital plane
View from above orbital plane
View from above satellite
View from above satellite

Ground track
Ground track

The orbit data is extracted from the following two-line orbital elements,

1 25346U 98032E   14107.25655932  .00000377  00000-0  12774-3 0  7812
2 25346 086.3984 347.6830 0002103 102.3741 036.7599 14.34212276833842
Epoch (UTC): 17 April 2014 06:09:26
Eccentricity: 0.0002103
inclination: 86.3984°
perigee height: 776 km
apogee height: 779 km
right ascension of ascending node: 347.6830°
argument of perigee: 102.3741°
revolutions per day: 14.34212276
mean anomaly at epoch: 36.7599°
orbit number at epoch: 83384

The dashed part of the orbit path shows where the satellite is in the earth's shadow,  

DLR